DW5678 Weather Reports


Display with metric or nautical units.
time (UTC)temp
F
wind
direction
speed
MPH
gust
MPH
rain 1hr
in
rain 24hr
in
rain mn
in
humidity
%
barometer
mb
20260906055805 78 19 1.0 2.0 0.00 0.00 0.00 56 1016.9
20260906054805 77 19 1.0 2.0 0.00 0.00 0.00 56 1016.9
20260906053805 77 19 0.0 3.0 0.00 0.00 0.00 55 1016.8
20260906051805 76 19 2.0 6.0 0.00 0.00 0.00 57 1016.7
20260906050805 76 21 0.0 3.0 0.00 0.00 0.00 58 1016.6
20260906045805 75 21 0.0 3.0 0.00 0.00 0.00 59 1016.4
20260906042805 74 22 0.0 6.0 0.00 0.00 0.00 58 1016.2
20260906040805 74 50 2.0 6.0 0.00 0.00 0.00 58 1016.2
20260906035805 74 9 0.0 1.0 0.00 0.00 0.00 61 1016.2
20260906034805 74 9 0.0 7.0 0.00 0.00 0.00 60 1016.1
20260906033805 72 7 5.0 10.0 0.00 0.00 0.00 60 1016.1
20260906032805 73 357 5.0 10.0 0.00 0.00 0.00 60 1016.2
20260906031805 74 351 0.0 6.0 0.00 0.00 0.00 60 1016.1
20260906030805 73 0 4.0 8.0 0.00 0.00 0.00 59 1016.0
20260906025805 72 31 3.0 7.0 0.00 0.00 0.00 61 1015.8
20260906024805 73 154 0.0 2.0 0.00 0.00 0.00 60 1015.8
20260906023805 73 124 3.0 6.0 0.00 0.00 0.00 58 1015.7
20260906020804 73 0 3.0 5.0 0.00 0.00 0.00 59 1015.6
20260906015804 74 217 0.0 2.0 0.00 0.00 0.00 59 1015.7
20260906014804 74 217 1.0 6.0 0.00 0.00 0.00 58 1015.7
20260906013805 74 244 0.0 3.0 0.00 0.00 0.00 59 1015.6
20260906012804 74 244 0.0 5.0 0.00 0.00 0.00 58 1015.5
20260906011804 74 251 1.0 3.0 0.00 0.00 0.00 58 1015.5
20260906010804 74 292 0.0 3.0 0.00 0.00 0.00 58 1015.5
20260906005804 74 292 0.0 3.0 0.00 0.00 0.00 58 1015.5
20260906004804 74 292 1.0 3.0 0.00 0.00 0.00 58 1015.5
20260906003804 73 292 1.0 5.0 0.00 0.00 0.00 59 1015.5
20260906001804 73 261 0.0 6.0 0.00 0.00 0.00 59 1015.7
20260906000804 73 263 2.0 7.0 0.00 0.00 0.00 59 1015.7
20260905235804 74 250 3.0 6.0 0.00 0.00 0.00 58 1015.7
20260905234805 74 250 5.0 8.0 0.00 0.00 0.00 56 1015.8
20260905233804 76 240 0.0 3.0 0.00 0.00 0.00 54 1015.6
20260905232804 76 240 0.0 3.0 0.00 0.00 0.00 54 1015.7
20260905231804 76 240 1.0 3.0 0.00 0.00 0.00 54 1015.8
20260905230804 77 240 0.0 2.0 0.00 0.00 0.00 54 1015.9
20260905225805 77 240 0.0 2.0 0.00 0.00 0.00 54 1016.0
20260905223805 78 240 0.0 3.0 0.00 0.00 0.00 54 1015.9
20260905222806 77 240 1.0 3.0 0.00 0.00 0.00 54 1016.0
20260905221805 78 240 0.0 5.0 0.00 0.00 0.00 52 1015.8
20260905220805 78 240 2.0 5.0 0.00 0.00 0.00 52 1015.8
20260905215806 79 240 0.0 0.0 0.00 0.00 0.00 52 1015.9
20260905214805 79 240 1.0 2.0 0.00 0.00 0.00 52 1016.0
20260905213805 79 240 0.0 2.0 0.00 0.00 0.00 51 1016.0
20260905212805 79 240 1.0 3.0 0.00 0.00 0.00 52 1016.1
20260905211805 79 240 0.0 1.0 0.00 0.00 0.00 51 1016.2
20260905210817 80 240 0.0 1.0 0.00 0.00 0.00 50 1016.2
20260905204805 79 240 0.0 0.0 0.00 0.00 0.00 50 1016.4
20260905202805 80 240 0.0 1.0 0.00 0.00 0.00 49 1016.4
20260905201805 80 240 0.0 0.0 0.00 0.00 0.00 48 1016.4
20260905200806 80 240 0.0 0.0 0.00 0.00 0.00 47 1016.4
20260905195805 80 240 0.0 1.0 0.00 0.00 0.00 48 1016.5
20260905194805 81 240 0.0 0.0 0.00 0.00 0.00 47 1016.5
20260905193806 81 240 0.0 0.0 0.00 0.00 0.00 47 1016.4
20260905191805 81 240 0.0 1.0 0.00 0.00 0.00 45 1016.4
20260905190805 82 240 0.0 0.0 0.00 0.00 0.00 44 1016.5
20260905185805 82 240 0.0 0.0 0.00 0.00 0.00 44 1016.5
20260905184806 81 240 0.0 1.0 0.00 0.00 0.00 46 1016.5
20260905183806 81 240 0.0 1.0 0.00 0.00 0.00 46 1016.5
20260905182805 81 240 0.0 0.0 0.00 0.00 0.00 48 1016.4
20260905181806 81 240 0.0 0.0 0.00 0.00 0.00 48 1016.3
20260905180806 80 240 0.0 0.0 0.00 0.00 0.00 51 1016.3
20260905175805 80 240 0.0 0.0 0.00 0.00 0.00 55 1016.4
20260905174805 81 240 0.0 0.0 0.00 0.00 0.00 61 1016.3
20260905173805 80 240 0.0 0.0 0.00 0.00 0.00 61 1016.2
20260905172805 81 240 0.0 0.0 0.00 0.00 0.00 58 1016.1
20260905171805 81 240 0.0 0.0 0.00 0.00 0.00 54 1016.0
20260905170805 81 240 0.0 0.0 0.00 0.00 0.00 54 1016.0
20260905165805 81 240 0.0 1.0 0.00 0.00 0.00 57 1015.9
20260905164805 81 240 0.0 3.0 0.00 0.00 0.00 64 1015.9
20260905163805 81 240 0.0 3.0 0.00 0.00 0.00 68 1015.9
20260905162805 81 240 0.0 2.0 0.00 0.00 0.00 68 1015.9
20260905161805 81 240 0.0 2.0 0.00 0.00 0.00 69 1016.0
20260905160805 80 240 0.0 3.0 0.00 0.00 0.00 71 1016.0
20260905155805 80 240 2.0 5.0 0.00 0.00 0.00 75 1016.1
20260905153805 82 240 1.0 5.0 0.00 0.00 0.00 73 1016.1
20260905151813 82 240 0.0 5.0 0.00 0.00 0.00 66 1016.1
20260905150806 82 240 1.0 5.0 0.00 0.00 0.00 66 1016.1
20260905145805 83 240 0.0 5.0 0.00 0.00 0.00 67 1016.1
20260905144805 83 240 0.0 5.0 0.00 0.00 0.00 66 1016.1
20260905142805 83 241 2.0 7.0 0.00 0.00 0.00 65 1016.2
20260905141805 84 244 2.0 6.0 0.00 0.00 0.00 62 1016.3
20260905140805 84 245 2.0 7.0 0.00 0.00 0.00 63 1016.3
20260905135805 84 216 1.0 7.0 0.00 0.00 0.00 64 1016.4
20260905134805 83 225 6.0 9.0 0.00 0.00 0.00 62 1016.4
20260905133805 84 208 3.0 9.0 0.00 0.00 0.00 65 1016.4
20260905132805 84 209 3.0 8.0 0.00 0.00 0.00 67 1016.6
20260905131805 85 197 3.0 8.0 0.00 0.00 0.00 62 1016.5
20260905130805 85 228 5.0 9.0 0.00 0.00 0.00 59 1016.6
20260905124805 85 194 3.0 8.0 0.00 0.00 0.00 57 1016.7
20260905123805 85 211 3.0 8.0 0.00 0.00 0.00 54 1016.7
20260905122805 85 210 3.0 8.0 0.00 0.00 0.00 61 1016.8
20260905121804 84 209 5.0 8.0 0.00 0.00 0.00 64 1016.9
20260905115805 84 212 2.0 8.0 0.00 0.00 0.00 60 1017.2
20260905114805 85 223 3.0 9.0 0.00 0.00 0.00 62 1017.3
20260905113805 83 226 3.0 10.0 0.00 0.00 0.00 63 1017.3
20260905111805 85 217 3.0 7.0 0.00 0.00 0.00 58 1017.3
20260905110805 85 175 2.0 7.0 0.00 0.00 0.00 51 1017.3
20260905105806 83 228 4.0 8.0 0.00 0.00 0.00 56 1017.4
20260905104805 85 238 3.0 6.0 0.00 0.00 0.00 57 1017.4
20260905103805 83 238 1.0 6.0 0.00 0.00 0.00 58 1017.5
20260905102805 84 188 2.0 7.0 0.00 0.00 0.00 59 1017.6
20260905101805 84 208 2.0 6.0 0.00 0.00 0.00 56 1017.7
20260905100805 84 227 5.0 7.0 0.00 0.00 0.00 57 1017.8
20260905095805 84 246 2.0 8.0 0.00 0.00 0.00 54 1017.8
20260905094805 85 232 2.0 7.0 0.00 0.00 0.00 54 1017.9
20260905092805 86 199 6.0 12.0 0.00 0.00 0.00 45 1018.0
20260905091805 86 146 2.0 10.0 0.00 0.00 0.00 44 1018.1
20260905090805 85 248 5.0 12.0 0.00 0.00 0.00 43 1018.1
20260905085805 86 246 5.0 10.0 0.00 0.00 0.00 42 1018.1
20260905084804 85 287 5.0 10.0 0.00 0.00 0.00 40 1018.1
20260905083805 85 273 5.0 13.0 0.00 0.00 0.00 42 1018.1
20260905082804 84 300 4.0 10.0 0.00 0.00 0.00 43 1018.2
20260905081805 83 283 3.0 7.0 0.00 0.00 0.00 44 1018.2
20260905080805 84 103 2.0 7.0 0.00 0.00 0.00 47 1018.2
20260905075805 85 10 4.0 9.0 0.00 0.00 0.00 39 1018.1
20260905074805 84 297 3.0 12.0 0.00 0.00 0.00 42 1018.0
20260905073805 83 359 5.0 15.0 0.00 0.00 0.00 43 1018.0
20260905072804 83 319 7.0 15.0 0.00 0.00 0.00 43 1018.1
20260905070804 81 33 6.0 16.0 0.00 0.00 0.00 43 1018.0
20260905065804 81 351 7.0 17.0 0.00 0.00 0.00 44 1018.0
20260905061805 81 335 3.0 10.0 0.00 0.00 0.00 42 1018.1
20260905060804 81 4 5.0 10.0 0.00 0.00 0.00 43 1018.1